Temp
56 56 56 56 56 55 55 55 54 54 53 52 52 51 51 50 49 39 34 37 31 18 25 29 31 21 22 18 10 16 15 16 11 7 8 3 1 3 3 10 4 -2 -2 0 4 -5 -2 16 16 6 8 15 15 16
56 56 56 55 55 55 55 54 54 53 52 52 52 51 51 50 49 42 32 39 38 26 26 31 31 31 30 29 20 16 14 12 16 9 5 4 8 2 -2 1 10 1 5 2 7 9 16 16 15 17 16 13 15 16
56 56 56 55 55 55 54 54 53 52 51 51 52 51 51 51 50 43 33 34 32 23 24 24 23 29 34 32 32 17 18 16 12 11 6 6 3 9 1 3 3 8 7 4 9 13 13 16 17 18 18 16 19 19
55 55 55 55 55 54 54 53 52 52 51 51 51 51 51 51 49 43 33 34 32 26 18 22 32 27 31 32 31 30 24 19 14 12 3 0 4 11 5 7 5 9 10 8 8 11 14 15 18 15 17 19 19 20
54 55 55 55 54 54 53 53 52 51 50 50 50 50 51 50 46 38 34 35 36 30 21 20 26 27 28 29 27 23 19 25 9 10 4 6 6 9 6 3 -3 6 7 4 6 10 9 11 14 17 15 16 18 19
54 54 54 54 54 53 53 52 51 50 49 49 49 49 49 46 45 36 28 34 38 33 21 15 25 19 24 24 20 16 22 25 19 13 8 6 3 7 0 -3 6 3 5 7 8 11 12 14 15 17 15 17 19 20
54 54 54 54 53 53 52 51 50 49 49 49 48 48 47 45 38 33 31 35 39 32 21 13 16 23 20 18 17 14 27 23 22 13 11 7 8 7 6 0 6 3 4 8 11 7 9 13 12 15 17 19 20 19
53 54 53 53 53 52 51 50 50 49 49 48 48 46 45 44 41 33 35 41 37 29 25 9 14 18 22 14 13 26 22 20 19 11 11 10 10 5 -0 4 1 -2 2 6 8 8 9 12 13 14 16 16 15 14
52 53 53 53 53 52 51 50 49 48 48 46 43 42 36 34 29 30 41 38 34 29 19 18 14 11 20 15 10 13 10 9 19 8 10 15 3 1 5 4 -3 0 4 3 7 7 6 7 10 12 11 13 13 13
51 52 53 52 52 51 50 49 48 47 43 42 37 30 25 30 38 37 31 25 23 23 22 19 19 15 15 14 12 7 15 9 4 10 17 6 1 1 1 1 -3 -3 -1 -5 2 5 5 11 9 9 12 15 14 15
50 51 52 52 51 49 48 48 46 43 43 34 28 24 30 36 30 25 18 18 18 15 19 17 15 13 16 11 10 11 2 6 -1 8 7 -3 -1 2 -6 -8 -5 -6 -6 0 2 1 6 10 11 13 13 14 15 15
50 50 51 51 49 48 47 45 43 38 33 33 30 31 29 26 21 18 15 16 15 17 16 15 14 13 14 15 9 9 1 3 -1 9 2 -7 3 -0 -9 -4 -3 -5 -6 -0 -2 4 5 13 15 15 13 14 14 15
50 50 51 49 48 47 46 44 42 39 36 31 26 22 21 18 13 13 12 13 13 15 13 13 12 15 17 16 5 3 1 2 13 -1 -1 2 -1 -3 -3 -8 -3 -5 -7 -4 2 1 5 12 17 16 13 14 17 15
50 50 49 48 47 45 44 41 40 39 32 25 21 14 18 12 15 18 19 19 17 16 14 15 14 14 16 8 9 1 8 9 -4 -8 -3 1 2 1 -5 -8 0 2 1 4 6 9 12 17 18 20 19 20 20 17
49 48 47 46 44 42 41 41 40 32 28 22 22 16 15 17 15 15 16 16 17 20 17 15 15 15 11 7 9 7 -0 -5 3 1 4 5 3 0 1 4 6 9 9 10 11 13 16 18 18 19 19 19 20 19
48 46 42 42 41 40 38 37 31 28 24 21 19 16 17 16 12 14 15 15 19 18 18 16 8 6 4 6 2 -1 -5 -3 4 6 8 1 4 7 10 14 15 14 14 15 16 17 18 18 17 18 20 19 19 19
44 36 41 40 39 41 40 29 27 22 20 18 15 20 20 18 16 16 18 18 21 18 11 10 6 7 8 -1 -2 4 0 7 10 9 10 15 15 14 13 16 18 18 17 16 16 17 18 21 19 19 18 18 19 20
35 39 41 39 36 32 25 26 23 20 15 15 17 17 19 20 18 18 17 19 18 17 15 11 12 1 3 -0 2 6 6 5 11 13 16 16 15 15 17 16 18 18 17 17 16 16 17 17 17 18 19 19 19 19
37 38 40 42 34 28 23 20 21 14 14 17 17 18 18 18 18 18 19 19 21 21 15 8 2 2 5 5 4 2 4 11 13 15 14 13 14 14 16 18 18 16 16 15 14 13 15 17 17 18 18 20 19 20
41 41 38 36 34 24 18 17 22 17 14 16 18 15 15 15 17 18 18 19 19 14 6 2 7 7 6 5 7 9 12 15 14 12 13 14 13 13 15 15 15 16 15 15 15 19 14 16 18 19 19 20 19 19
34 33 32 26 20 17 15 14 13 15 15 13 14 14 12 14 13 13 13 19 10 5 4 7 4 2 -0 3 10 16 15 13 12 12 13 12 15 14 12 12 13 14 13 14 13 14 21 17 18 18 17 18 20 20
31 35 26 27 18 15 11 12 13 14 11 10 11 12 9 7 8 8 12 7 6 8 7 4 2 5 6 6 10 13 15 15 14 14 20 18 13 10 11 13 12 9 13 15 15 15 16 17 18 18 17 18 20 19
34 30 24 23 17 15 7 13 11 11 10 8 8 7 5 2 2 6 1 5 6 6 6 7 5 5 8 8 13 13 13 13 11 11 12 11 12 14 14 14 16 13 14 16 17 16 15 20 19 18 17 18 17 17
30 19 18 14 15 7 11 9 12 10 8 8 7 2 -1 -1 -1 -6 -3 1 5 7 7 8 5 5 5 4 5 7 10 12 8 6 8 8 9 9 14 14 16 17 18 17 15 15 14 14 20 18 16 15 15 16
22 15 16 8 10 11 9 8 7 8 6 4 0 -3 -4 -4 -7 -10 -2 4 1 2 8 8 7 7 3 -2 4 7 13 10 7 6 7 7 5 6 10 15 16 17 17 14 13 13 11 12 14 15 15 14 14 15
14 11 14 13 11 13 11 8 6 6 5 -0 -1 -5 -9 -7 -8 -1 2 3 2 4 5 8 7 3 4 8 4 4 8 9 8 4 7 9 8 8 7 11 11 13 16 15 11 11 11 12 12 13 13 14 19 16
12 9 11 16 14 12 9 9 9 7 2 1 -2 -5 -3 -4 -2 6 6 5 6 7 7 10 10 9 7 5 8 8 8 5 8 8 8 8 9 12 15 13 12 16 15 14 13 11 10 11 11 13 14 14 14 15
12 12 10 9 9 8 7 4 4 5 6 5 4 -3 1 3 7 8 9 4 0 -4 -3 -4 -1 2 1 1 1 0 -1 -2 0 4 6 5 3 4 9 15 15 21 15 12 12 11 12 12 12 12 13 13 14 15
9 11 12 5 4 3 3 5 7 6 7 7 4 -0 0 5 3 3 5 1 -7 -3 -2 -2 -2 -10 -8 -8 -7 -4 -3 4 4 -0 -1 2 1 6 7 11 13 11 10 11 21 16 10 11 12 12 14 14 14 13
6 7 6 3 5 4 -1 -3 -4 -4 1 -1 -0 0 1 2 2 0 -1 -6 -3 -3 -6 -8 -11 -7 -5 -6 -5 -4 -2 5 7 6 2 1 3 5 5 9 11 10 9 9 9 11 23 19 18 13 10 10 10 10
2 0 -2 -3 -5 -9 -10 -10 -11 -5 -10 -13 -13 -8 -5 -7 -1 -1 -3 -6 -7 -13 -9 -8 -10 -15 -10 -8 -7 -8 -2 -1 4 6 3 0 2 3 5 8 10 10 9 8 10 10 10 11 9 8 7 7 8 10
-2 -9 -4 -6 -9 -12 -15 -16 -18 -16 -18 -15 -14 -17 -10 -6 -5 -1 -6 -9 -10 -8 0 -5 -11 -3 -5 -4 -8 -6 12 -1 -1 1 3 9 9 9 9 7 11 12 11 11 10 10 9 9 9 9 7 6 6 7
-16 -16 -17 -14 -14 -14 -14 -15 -15 -15 -15 -15 -13 -14 -15 -8 -5 -0 -5 -9 -5 -5 -5 -4 -3 -9 -8 -8 -7 -6 4 -6 -3 16 21 22 22 17 11 12 13 13 13 13 13 13 11 8 7 7 8 8 6 6
MSLP
1016.41 1017.52 1018.46 1019.53 1020.56 1021.53 1022.41 1023.25 1024.07 1024.61 1025.25 1026.11 1026.53 1026.93 1027.40 1027.79 1028.06 1028.59 1029.66 1029.68 1029.96 1031.50 1032.24 1032.04 1032.36 1033.10 1033.63 1034.21 1035.22 1035.34 1035.95 1035.82 1036.25 1037.06 1037.79 1038.67 1038.41 1037.88 1037.37 1036.43 1036.46 1037.29 1037.18 1036.63 1035.63 1034.64 1032.99 1032.10 1031.12 1032.01 1032.86 1031.77 1030.98 1029.67
1015.65 1016.63 1017.70 1018.68 1019.66 1020.73 1021.64 1022.49 1023.49 1024.41 1024.86 1025.78 1026.45 1026.71 1027.26 1027.77 1028.17 1028.63 1029.89 1029.76 1030.03 1031.12 1032.39 1032.26 1032.32 1032.47 1032.69 1033.17 1034.43 1035.38 1035.95 1036.67 1036.91 1037.78 1038.72 1039.23 1039.14 1038.53 1038.59 1038.07 1036.94 1037.39 1037.20 1037.05 1036.53 1034.59 1033.16 1032.85 1032.61 1032.59 1032.55 1032.04 1031.04 1029.85
1014.69 1015.79 1016.85 1017.78 1018.81 1019.85 1020.90 1021.82 1022.85 1023.82 1024.68 1025.39 1026.30 1026.53 1027.04 1027.60 1028.08 1028.61 1029.79 1030.22 1030.59 1032.00 1032.99 1032.92 1032.88 1032.84 1032.79 1032.94 1033.30 1034.67 1035.76 1036.09 1037.01 1037.25 1038.58 1039.56 1039.86 1038.88 1038.94 1038.22 1037.64 1036.81 1036.73 1036.82 1036.22 1034.34 1033.79 1033.09 1032.99 1032.78 1032.28 1031.80 1030.88 1029.90
1013.58 1014.75 1015.88 1016.85 1017.81 1018.84 1019.96 1021.13 1022.12 1023.17 1024.17 1024.81 1026.10 1026.62 1026.79 1027.42 1028.26 1028.88 1029.81 1030.30 1030.80 1032.06 1033.11 1033.53 1033.06 1033.19 1033.12 1033.19 1033.57 1033.99 1034.85 1035.87 1036.80 1037.61 1039.01 1040.21 1039.93 1038.70 1038.74 1038.41 1038.28 1037.18 1036.91 1036.26 1035.69 1034.28 1033.69 1033.30 1033.13 1033.09 1032.19 1031.45 1030.69 1029.75
1012.53 1013.76 1014.86 1015.78 1016.80 1017.84 1018.91 1020.13 1021.38 1022.48 1023.63 1024.45 1025.45 1026.55 1026.83 1027.23 1028.36 1029.19 1030.10 1030.41 1030.50 1031.37 1033.01 1033.73 1033.69 1033.77 1033.65 1033.80 1034.29 1034.71 1035.31 1036.27 1037.34 1038.42 1039.35 1039.95 1039.64 1039.27 1039.01 1039.10 1038.72 1037.30 1036.89 1036.75 1035.60 1035.41 1035.18 1034.19 1033.59 1033.32 1032.78 1031.68 1030.62 1029.54
1011.40 1012.62 1013.67 1014.86 1015.73 1016.78 1017.92 1019.15 1020.33 1021.90 1023.20 1024.26 1025.11 1026.08 1026.66 1027.64 1028.41 1029.15 1030.54 1030.74 1030.50 1031.15 1032.47 1034.09 1034.41 1034.37 1034.67 1034.89 1035.26 1035.80 1035.99 1036.51 1037.11 1038.09 1039.00 1038.81 1039.06 1039.67 1040.23 1039.92 1037.40 1036.90 1036.66 1036.40 1035.92 1035.64 1035.21 1034.36 1033.89 1033.46 1033.06 1032.01 1030.79 1029.81
1010.31 1011.46 1012.54 1013.69 1014.73 1015.73 1016.88 1018.42 1019.75 1021.42 1022.93 1024.08 1025.25 1026.03 1026.83 1027.93 1028.72 1029.68 1030.60 1030.78 1030.74 1031.25 1032.65 1034.30 1034.66 1035.03 1035.21 1035.65 1036.11 1036.47 1036.17 1036.69 1037.13 1038.00 1038.83 1039.03 1039.05 1039.51 1040.04 1039.92 1037.86 1037.43 1036.91 1036.56 1035.97 1035.73 1035.20 1034.64 1034.38 1033.65 1032.93 1031.99 1031.12 1030.18
1009.90 1010.53 1011.42 1012.50 1013.58 1014.76 1016.28 1017.86 1019.28 1021.02 1022.62 1024.28 1025.18 1026.46 1027.48 1028.26 1029.29 1030.25 1031.01 1030.83 1030.98 1031.74 1032.90 1034.59 1035.20 1035.45 1035.36 1036.01 1036.51 1036.06 1036.40 1036.76 1037.30 1038.01 1038.63 1039.04 1039.44 1040.20 1040.14 1038.40 1038.06 1037.97 1037.40 1036.94 1036.46 1036.16 1035.64 1035.09 1034.43 1033.70 1032.77 1031.93 1031.15 1030.36
1009.14 1009.83 1010.66 1011.57 1012.74 1014.21 1015.60 1017.19 1019.14 1020.88 1022.92 1024.62 1025.91 1027.27 1028.40 1029.56 1030.53 1031.11 1031.09 1031.16 1031.39 1032.14 1033.11 1034.21 1034.95 1035.54 1035.73 1036.31 1036.72 1037.12 1036.96 1037.53 1037.53 1038.10 1038.78 1039.14 1039.53 1039.63 1038.37 1038.50 1038.37 1038.31 1038.25 1037.61 1036.97 1036.28 1035.71 1035.30 1034.68 1033.89 1033.04 1032.11 1031.50 1030.62
1008.55 1008.92 1009.68 1010.78 1012.02 1013.56 1015.37 1017.49 1018.92 1020.77 1022.88 1024.82 1025.90 1028.26 1029.76 1030.36 1030.74 1031.25 1031.68 1031.62 1032.10 1032.77 1033.27 1033.95 1034.73 1035.71 1036.34 1036.91 1037.64 1037.88 1037.67 1037.75 1038.11 1038.26 1038.48 1039.16 1038.76 1037.50 1037.66 1037.76 1038.11 1038.13 1038.13 1038.08 1037.56 1036.33 1035.82 1035.21 1034.67 1033.94 1033.29 1032.40 1031.68 1030.93
1008.16 1008.20 1008.87 1009.83 1011.26 1012.96 1015.08 1017.15 1018.91 1021.33 1022.78 1024.02 1026.72 1029.32 1030.30 1030.53 1031.37 1031.82 1032.29 1032.54 1033.01 1033.45 1033.71 1034.42 1034.99 1035.56 1036.08 1036.72 1037.55 1038.14 1038.55 1038.71 1038.89 1038.54 1039.00 1039.38 1039.14 1037.58 1037.20 1037.79 1037.87 1037.80 1037.87 1037.71 1037.18 1036.25 1035.53 1035.10 1034.48 1033.72 1032.99 1032.29 1031.57 1030.87
1007.73 1007.80 1008.18 1009.11 1010.72 1012.40 1014.79 1016.39 1018.45 1019.83 1022.41 1023.68 1025.82 1028.53 1030.28 1031.42 1031.88 1032.07 1032.56 1033.13 1033.26 1033.15 1034.04 1034.59 1035.19 1035.39 1036.06 1036.24 1037.20 1038.14 1038.63 1039.13 1038.84 1038.65 1039.65 1039.86 1037.61 1037.18 1037.45 1037.66 1037.73 1037.36 1037.62 1037.48 1036.86 1036.17 1035.00 1034.33 1033.71 1033.15 1032.70 1032.16 1031.52 1030.88
1007.21 1007.43 1007.80 1008.94 1010.74 1012.63 1014.70 1016.88 1018.23 1020.73 1021.91 1023.84 1026.34 1028.69 1029.85 1031.64 1031.65 1031.43 1031.83 1032.27 1032.56 1032.73 1033.88 1034.65 1035.34 1035.54 1036.21 1036.71 1038.16 1038.92 1039.41 1039.51 1038.99 1039.06 1038.87 1037.69 1036.70 1036.86 1037.05 1037.54 1037.45 1036.77 1036.78 1036.58 1036.17 1035.68 1034.70 1033.79 1033.10 1032.69 1032.29 1031.70 1031.16 1030.81
1006.76 1007.00 1007.83 1009.56 1011.39 1013.36 1015.18 1017.22 1018.27 1019.80 1021.07 1024.40 1026.81 1029.08 1029.42 1030.33 1030.04 1029.47 1029.82 1030.25 1031.14 1031.77 1033.01 1033.98 1034.97 1035.63 1036.15 1036.77 1037.82 1039.27 1039.45 1039.58 1039.81 1039.58 1038.20 1036.62 1035.67 1035.80 1036.29 1036.44 1036.44 1036.16 1035.79 1035.54 1035.04 1034.40 1033.83 1033.22 1032.73 1032.27 1031.88 1031.43 1031.06 1030.80
1006.06 1007.14 1008.87 1010.73 1012.58 1014.37 1016.05 1017.41 1018.28 1019.49 1022.39 1025.20 1026.33 1027.76 1028.73 1028.91 1029.38 1029.49 1030.17 1030.82 1031.37 1031.99 1032.71 1033.93 1034.70 1035.30 1036.37 1037.39 1038.06 1039.03 1039.51 1039.22 1038.56 1037.31 1036.03 1034.74 1034.60 1034.75 1035.23 1035.40 1035.20 1034.97 1034.72 1034.56 1034.22 1033.61 1033.06 1032.65 1032.34 1032.03 1031.73 1031.42 1031.09 1030.77
1007.01 1009.08 1010.45 1012.18 1013.94 1014.92 1016.15 1017.13 1018.85 1021.47 1024.46 1025.71 1026.67 1027.78 1028.68 1029.12 1029.89 1030.33 1030.81 1031.07 1031.29 1031.93 1032.87 1033.49 1034.85 1035.94 1036.55 1037.21 1038.17 1038.68 1038.81 1037.25 1035.23 1034.37 1033.51 1033.39 1033.72 1033.92 1033.97 1033.80 1033.67 1033.56 1033.41 1033.40 1033.10 1032.79 1032.42 1032.20 1032.03 1031.78 1031.55 1031.31 1031.07 1030.85
1008.50 1010.94 1012.92 1013.51 1014.56 1015.88 1016.64 1018.39 1021.14 1023.77 1025.27 1026.46 1027.08 1027.30 1027.93 1028.35 1028.91 1029.89 1030.26 1030.85 1031.59 1031.97 1032.69 1033.50 1034.73 1035.62 1036.69 1037.39 1037.66 1037.26 1036.10 1034.15 1033.29 1032.66 1032.38 1032.40 1032.58 1032.69 1032.65 1032.71 1032.66 1032.61 1032.51 1032.62 1032.43 1032.23 1032.01 1031.85 1031.79 1031.55 1031.44 1031.20 1030.98 1030.81
1009.64 1011.92 1013.18 1013.85 1014.38 1016.51 1019.64 1021.42 1023.28 1024.78 1026.21 1027.16 1027.72 1028.08 1028.28 1028.46 1029.09 1029.91 1030.26 1030.84 1031.41 1031.74 1032.31 1033.07 1034.01 1035.55 1035.98 1036.14 1035.38 1034.12 1033.29 1032.79 1032.20 1031.88 1031.74 1031.60 1031.59 1031.71 1031.76 1031.75 1031.79 1031.67 1031.66 1031.88 1031.86 1031.84 1031.72 1031.70 1031.69 1031.42 1031.24 1031.12 1030.92 1030.75
1010.41 1012.17 1013.76 1013.94 1015.29 1017.96 1021.47 1023.84 1024.23 1025.78 1027.46 1028.07 1028.36 1028.57 1029.03 1029.40 1029.71 1029.90 1030.37 1031.07 1031.25 1031.38 1032.27 1033.28 1034.33 1034.80 1034.17 1033.67 1032.88 1032.52 1032.19 1031.98 1031.66 1031.43 1031.36 1031.11 1031.18 1031.23 1031.27 1031.34 1031.43 1031.38 1031.26 1031.37 1031.51 1031.61 1031.45 1031.40 1031.44 1031.36 1031.13 1031.02 1030.85 1030.72
1012.04 1013.22 1014.55 1015.65 1016.59 1019.69 1023.03 1025.13 1025.21 1026.19 1027.64 1028.02 1028.62 1029.43 1029.94 1030.26 1030.67 1030.58 1030.75 1031.10 1031.53 1032.04 1032.98 1033.66 1033.14 1032.56 1032.32 1031.89 1031.66 1031.58 1031.26 1031.04 1031.24 1031.42 1031.09 1030.90 1030.81 1031.00 1030.90 1031.10 1031.17 1031.36 1031.23 1031.06 1031.17 1031.03 1031.17 1031.20 1031.23 1031.22 1031.02 1030.81 1030.73 1030.61
1013.73 1015.63 1016.24 1016.71 1019.56 1021.53 1024.25 1025.96 1026.73 1027.54 1028.15 1028.80 1029.47 1030.07 1030.94 1031.17 1031.59 1031.68 1031.76 1031.61 1032.11 1032.50 1032.22 1031.59 1031.76 1031.55 1031.23 1031.17 1031.11 1030.92 1030.93 1030.84 1030.90 1030.86 1030.67 1030.63 1030.46 1030.45 1030.58 1030.62 1030.76 1031.16 1031.06 1030.95 1030.98 1030.87 1030.56 1030.76 1030.87 1030.95 1030.91 1030.74 1030.64 1030.53
1014.98 1015.95 1017.41 1018.43 1021.27 1023.72 1025.78 1027.09 1027.32 1028.12 1028.88 1029.79 1030.33 1030.83 1031.75 1032.42 1032.51 1032.67 1032.41 1032.51 1032.16 1030.94 1030.77 1030.94 1031.13 1031.04 1031.33 1031.41 1030.84 1030.68 1030.62 1030.59 1030.53 1030.48 1030.14 1030.28 1030.42 1030.44 1030.14 1030.19 1030.67 1030.62 1030.59 1030.63 1030.63 1030.56 1030.53 1030.52 1030.61 1030.73 1030.74 1030.68 1030.52 1030.56
1015.02 1016.33 1018.77 1020.27 1022.50 1024.45 1027.73 1027.80 1027.83 1028.62 1029.34 1030.40 1031.06 1031.75 1032.76 1033.30 1033.51 1033.27 1033.10 1032.36 1031.18 1030.06 1029.93 1030.31 1030.50 1030.67 1030.96 1030.73 1030.52 1030.51 1030.42 1030.46 1030.52 1030.39 1030.34 1030.29 1030.21 1029.98 1029.82 1029.88 1029.93 1030.02 1030.14 1030.08 1030.13 1030.20 1030.25 1030.17 1030.31 1030.27 1030.47 1030.45 1030.58 1030.57
1016.25 1018.78 1020.74 1022.19 1023.45 1026.25 1027.33 1027.67 1027.98 1028.78 1029.78 1030.58 1031.26 1032.42 1033.40 1033.77 1033.99 1034.09 1033.58 1031.95 1030.19 1029.84 1029.91 1029.96 1030.27 1030.81 1030.88 1030.91 1030.70 1030.28 1030.01 1030.04 1030.22 1030.35 1030.26 1030.35 1029.97 1029.76 1029.68 1029.51 1029.45 1029.49 1029.56 1029.64 1029.78 1029.88 1030.00 1030.08 1030.07 1030.04 1030.22 1030.38 1030.44 1030.51
1017.99 1021.68 1022.07 1023.75 1024.72 1025.54 1026.51 1027.47 1028.09 1028.66 1029.55 1030.45 1031.33 1032.57 1033.55 1034.22 1034.70 1034.42 1033.05 1030.82 1030.04 1029.50 1029.44 1029.63 1030.04 1030.30 1030.67 1030.85 1030.33 1029.80 1029.61 1029.79 1030.06 1030.35 1029.72 1029.66 1029.65 1029.61 1029.41 1029.20 1029.14 1029.12 1029.24 1029.44 1029.62 1029.77 1029.90 1030.00 1030.04 1030.09 1030.17 1030.28 1030.36 1030.43
1019.68 1022.19 1022.79 1023.31 1024.22 1024.52 1025.56 1026.47 1027.08 1027.85 1028.88 1030.34 1031.74 1033.01 1033.48 1034.01 1034.28 1032.60 1030.62 1029.08 1029.05 1028.60 1028.78 1029.03 1029.46 1030.18 1030.37 1030.08 1029.95 1029.86 1029.56 1029.15 1029.77 1030.03 1029.43 1029.16 1029.15 1029.27 1029.16 1029.13 1028.96 1028.81 1028.78 1028.98 1029.26 1029.50 1029.68 1029.82 1029.92 1030.00 1030.04 1030.09 1030.03 1030.27
1021.23 1022.82 1023.30 1023.46 1023.71 1024.50 1025.69 1026.39 1027.04 1027.69 1028.71 1029.77 1031.15 1032.61 1033.17 1032.91 1031.43 1029.45 1028.11 1027.80 1027.98 1027.71 1027.65 1028.01 1028.60 1028.99 1029.23 1029.38 1029.45 1029.46 1029.04 1029.19 1029.32 1029.25 1028.79 1028.59 1028.55 1028.58 1028.63 1028.62 1028.39 1028.22 1028.32 1028.52 1028.69 1028.91 1029.12 1029.38 1029.55 1029.65 1029.73 1029.82 1029.91 1030.01
1022.28 1022.79 1023.10 1024.24 1024.88 1025.52 1026.28 1027.02 1027.50 1027.77 1028.13 1028.91 1030.05 1030.90 1030.46 1029.81 1028.53 1027.66 1027.33 1027.36 1027.38 1027.60 1027.95 1028.41 1028.45 1028.75 1029.01 1029.07 1029.26 1029.58 1029.55 1029.29 1029.28 1029.13 1028.88 1028.62 1028.32 1028.15 1028.06 1027.98 1027.87 1027.56 1027.99 1028.17 1028.03 1028.23 1028.49 1028.77 1029.01 1029.17 1029.33 1029.48 1029.68 1029.90
1023.21 1023.56 1024.04 1025.80 1026.43 1027.00 1027.12 1027.42 1027.63 1027.80 1028.02 1028.49 1028.83 1029.05 1028.63 1028.01 1027.28 1027.46 1027.79 1027.84 1027.96 1028.17 1028.87 1029.00 1029.04 1029.07 1029.19 1029.20 1029.32 1029.35 1029.45 1029.48 1029.67 1029.72 1029.37 1029.21 1028.80 1028.15 1027.44 1027.49 1027.45 1027.40 1027.52 1027.58 1027.40 1027.65 1028.06 1028.26 1028.48 1028.67 1028.98 1029.29 1029.57 1029.90
1024.51 1025.01 1025.44 1026.22 1027.09 1028.09 1028.55 1028.61 1028.88 1029.20 1029.24 1029.37 1029.52 1029.13 1028.82 1028.18 1027.66 1027.60 1027.80 1028.15 1028.63 1028.58 1028.57 1028.69 1028.96 1029.41 1030.12 1030.40 1029.96 1029.45 1029.02 1028.86 1028.80 1028.87 1028.88 1028.80 1028.30 1027.61 1027.36 1027.35 1027.34 1027.39 1027.49 1027.54 1027.52 1027.39 1027.06 1027.56 1027.86 1028.34 1029.14 1029.51 1029.79 1030.06
1026.10 1026.55 1027.21 1027.96 1028.81 1029.52 1030.05 1030.30 1030.35 1030.65 1031.05 1030.98 1031.12 1031.01 1030.65 1029.72 1028.02 1027.20 1027.42 1027.71 1027.94 1028.23 1028.68 1029.27 1029.64 1029.57 1029.86 1030.11 1029.91 1029.36 1029.17 1028.25 1027.99 1027.84 1027.70 1027.59 1027.46 1027.39 1027.34 1027.35 1027.27 1027.33 1027.39 1027.48 1027.56 1027.58 1027.67 1027.81 1028.27 1028.70 1029.22 1029.60 1029.83 1030.02
1027.77 1028.46 1028.63 1029.85 1030.79 1031.23 1031.58 1031.92 1032.40 1032.27 1032.62 1032.12 1032.02 1031.27 1030.43 1030.01 1029.26 1027.74 1027.56 1027.93 1028.32 1028.90 1028.73 1029.00 1029.72 1029.31 1028.90 1028.72 1028.60 1028.49 1028.17 1027.91 1027.72 1027.34 1027.19 1027.05 1026.87 1026.86 1026.76 1026.95 1026.85 1026.95 1027.12 1027.28 1027.43 1027.61 1027.80 1028.06 1028.35 1028.67 1029.06 1029.40 1029.67 1029.88
1029.50 1029.70 1030.16 1030.93 1031.65 1032.20 1032.34 1032.36 1032.49 1032.11 1031.72 1031.97 1031.73 1031.69 1031.68 1031.23 1030.25 1028.49 1027.74 1027.89 1028.03 1028.31 1028.29 1028.46 1028.35 1028.42 1028.52 1028.43 1028.37 1028.23 1028.12 1027.84 1027.51 1026.11 1025.35 1025.21 1025.25 1025.58 1026.08 1026.18 1026.34 1026.51 1026.68 1026.88 1027.06 1027.27 1027.56 1027.90 1028.20 1028.50 1028.79 1029.06 1029.35 1029.65
Wind_Speed
31 31 30 29 28 27 26 24 22 21 21 18 16 14 12 12 9 5 1 3 4 4 2 1 3 4 2 2 4 4 5 4 4 5 3 2 1 4 3 4 2 3 2 3 3 4 6 7 5 5 6 13 14 17
32 31 30 30 29 29 28 27 24 22 21 19 17 16 14 12 10 6 3 2 2 5 4 2 3 2 2 6 5 2 6 3 3 4 1 1 2 1 2 4 2 3 6 4 6 6 2 3 3 3 6 9 10 15
32 32 32 31 30 30 29 28 27 25 23 21 18 17 15 14 10 6 3 1 4 4 3 3 1 2 4 2 3 5 3 4 1 4 4 2 2 3 1 5 1 3 4 2 4 2 6 7 2 6 10 10 14 14
33 33 32 32 32 32 31 30 29 27 26 23 19 17 16 13 13 7 3 1 4 3 4 3 1 3 1 2 3 3 6 4 5 3 3 3 2 3 3 3 4 5 4 4 6 5 7 0 9 9 15 14 14 15
33 33 32 33 33 33 32 32 31 29 28 25 22 18 16 16 16 9 3 2 2 4 4 1 2 3 4 4 6 5 5 3 2 2 2 3 2 1 1 2 4 4 6 4 5 1 3 9 8 11 10 15 15 14
33 33 33 33 34 34 33 33 33 30 28 25 23 20 21 21 15 4 3 2 1 2 5 2 1 3 6 6 7 6 3 1 2 3 4 2 2 3 2 3 6 5 3 5 3 2 6 10 9 5 12 14 14 13
33 33 33 33 34 34 34 34 33 31 29 26 22 23 24 16 5 4 1 2 4 3 4 3 2 2 2 3 2 3 2 0 0 1 2 2 1 3 1 4 6 5 4 4 3 2 4 2 6 14 13 13 12 9
27 31 32 32 32 32 33 33 34 32 30 27 25 26 22 22 10 5 3 6 3 4 3 3 1 1 1 0 2 0 2 1 1 2 2 1 1 2 4 8 6 5 6 6 5 3 5 7 8 9 7 7 9 9
24 28 30 30 31 32 35 37 36 34 31 31 32 24 8 4 2 2 8 8 3 3 3 2 4 4 2 1 1 3 2 1 1 1 2 1 1 6 9 7 5 5 5 5 7 5 4 3 8 9 6 9 7 9
13 27 29 29 31 34 37 38 39 36 40 32 9 5 3 1 15 8 3 2 4 3 2 2 1 2 3 1 2 3 1 2 1 3 0 1 6 6 7 7 4 5 6 3 3 6 5 5 7 8 7 8 6 7
9 22 29 31 35 40 41 43 42 42 25 3 5 4 1 9 2 2 2 1 1 1 2 2 1 4 0 3 2 1 2 0 2 4 2 4 5 6 3 4 5 5 5 7 6 5 5 7 9 9 8 7 6 7
10 13 26 33 41 45 47 48 46 14 4 11 13 8 3 2 2 3 2 1 3 3 2 3 2 3 2 3 4 1 3 3 4 1 3 4 7 6 3 5 5 5 4 7 5 8 5 6 8 6 6 6 5 6
11 13 26 40 45 47 47 45 33 42 25 6 6 5 5 1 3 7 8 4 3 6 5 4 3 3 2 3 4 4 4 4 2 2 5 7 5 5 6 3 5 4 4 5 6 6 5 5 6 3 6 5 5 5
11 21 38 43 45 47 43 45 39 18 9 5 5 7 6 4 5 6 3 4 3 4 7 4 3 3 2 3 3 4 2 2 3 2 8 5 6 5 4 3 2 4 5 6 7 6 6 5 5 5 5 4 5 5
23 39 43 43 46 42 43 33 22 6 6 4 4 6 5 3 3 3 3 4 2 6 5 4 3 3 2 4 2 3 4 4 6 7 5 5 5 3 3 4 6 6 5 5 4 4 5 4 4 4 4 4 4 4
39 39 32 44 43 37 34 23 8 5 4 4 4 5 4 3 2 2 2 4 3 5 3 3 4 4 1 4 3 7 6 8 6 5 4 2 2 4 5 5 6 6 5 5 5 5 4 4 4 4 4 3 3 3
31 9 39 39 37 32 24 9 5 6 5 4 2 3 2 2 4 3 4 4 4 3 3 3 5 4 4 3 3 6 8 5 5 3 2 4 4 5 6 5 5 5 5 6 5 5 4 3 5 3 4 3 3 3
18 28 39 36 25 16 5 6 5 5 5 2 2 3 2 2 5 4 3 6 4 3 4 4 5 3 6 6 5 6 5 4 3 3 3 4 4 5 5 6 5 6 5 5 5 4 3 3 4 3 3 3 3 2
26 25 36 28 13 7 5 4 3 5 3 2 3 3 3 3 3 4 4 4 1 3 6 2 4 4 5 5 5 4 3 3 3 3 3 4 5 5 5 5 5 5 5 4 4 4 4 4 3 2 2 2 2 2
41 34 27 20 8 5 6 3 1 5 3 3 3 3 3 3 2 3 5 3 2 2 2 3 6 5 5 4 5 3 3 3 2 2 4 3 3 4 5 5 4 4 4 3 3 6 2 2 2 3 3 3 2 2
21 10 13 8 6 8 6 2 4 3 3 3 3 2 3 2 2 2 2 1 2 4 4 5 4 4 3 2 2 2 2 3 4 5 3 3 3 3 3 3 3 3 4 3 3 4 7 4 3 2 2 2 1 2
6 9 4 6 7 5 6 4 4 2 4 2 3 2 3 2 3 2 0 1 4 5 5 4 4 2 2 3 4 4 4 3 4 4 8 6 3 2 2 3 3 3 3 4 4 4 4 2 2 3 3 2 2 1
14 7 5 4 7 6 2 1 4 1 4 3 1 3 1 1 0 2 1 3 5 4 3 3 3 3 3 2 2 3 4 5 4 4 4 4 4 3 2 3 3 3 4 4 4 4 3 7 5 4 3 3 2 2
10 7 5 4 5 4 2 2 2 4 3 3 4 4 2 2 1 3 4 4 4 1 3 4 3 1 2 2 2 4 4 4 2 2 3 3 2 3 4 3 3 4 4 2 3 3 3 3 6 2 3 3 2 3
9 4 4 4 1 6 5 4 3 2 3 2 4 2 2 2 2 2 4 5 3 3 3 3 3 3 3 2 3 3 4 4 3 5 3 3 2 1 2 3 3 3 2 3 3 3 3 2 2 3 3 3 4 4
7 2 3 3 3 3 5 5 6 5 4 3 2 3 2 4 2 8 5 5 4 5 4 6 6 3 3 5 3 2 4 3 3 2 4 4 4 4 3 4 3 4 4 5 4 5 4 4 4 5 4 6 10 7
5 3 1 1 3 4 4 3 3 3 5 7 6 5 4 5 7 6 3 3 3 4 4 4 5 5 4 2 2 3 2 3 4 4 2 2 3 4 4 4 6 4 2 5 5 5 6 6 5 5 5 4 4 4
3 3 6 3 2 1 5 3 4 7 5 4 7 6 10 9 6 4 4 2 3 3 3 2 1 3 3 3 2 0 1 0 1 2 3 3 3 3 4 4 3 10 4 4 4 4 5 5 5 5 5 5 4 3
3 2 4 3 2 2 4 5 5 2 2 5 5 4 5 4 2 1 2 2 2 4 3 1 2 2 2 2 2 2 2 4 5 3 4 4 3 4 4 4 3 2 1 2 7 8 7 5 5 4 5 4 3 3
2 1 3 2 3 3 1 2 1 1 2 2 1 3 3 3 3 2 2 2 3 4 3 3 2 3 2 2 3 4 3 4 5 5 5 5 5 3 2 3 3 3 2 2 2 2 8 6 4 3 3 3 3 3
2 2 3 2 2 1 2 3 3 3 3 2 3 2 3 4 5 3 3 3 3 3 3 1 2 3 3 3 4 2 4 4 7 9 6 3 3 2 3 3 2 3 3 3 3 3 1 2 3 5 5 5 6 6
3 2 3 3 1 2 3 2 0 2 3 1 2 1 3 4 4 4 1 3 4 2 6 4 3 4 5 4 3 4 10 2 3 4 7 5 4 5 4 3 3 3 4 4 4 4 3 5 5 5 5 6 6 6
2 2 3 4 3 1 2 3 3 2 3 3 2 0 1 2 6 4 2 1 3 3 3 4 4 3 4 5 4 4 5 3 7 12 13 12 12 9 5 4 4 5 6 6 6 6 7 6 5 5 6 6 7 6
Wind_Direction
183 185 183 183 184 184 183 181 180 173 173 176 170 162 149 132 116 83 106 16 111 111 307 112 136 122 77 94 137 254 37 342 30 58 86 266 132 271 21 264 248 187 47 316 323 341 332 1 345 75 247 303 306 319
186 185 185 184 183 184 183 180 178 176 172 176 174 164 158 153 128 98 87 352 74 83 171 43 70 58 154 174 134 4 170 174 184 87 34 88 292 9 159 285 40 351 175 212 181 251 340 341 221 252 286 293 308 318
186 187 186 185 184 184 183 180 176 173 173 174 177 168 164 160 149 105 119 125 61 83 12 55 25 45 50 74 141 117 310 163 31 174 159 199 238 122 264 251 302 291 168 200 6 296 315 311 266 322 330 320 316 317
186 188 187 186 185 184 182 180 176 172 172 171 175 171 162 160 134 106 102 124 87 101 110 272 49 54 33 44 78 101 132 54 101 77 111 142 186 136 237 223 192 206 134 215 254 294 316 10 335 329 322 323 321 320
186 188 189 187 186 184 181 179 175 172 171 170 169 171 162 136 113 89 84 51 118 122 162 200 36 13 19 94 77 56 94 108 82 58 87 236 260 64 322 44 275 189 204 160 245 148 193 273 302 314 319 321 320 321
188 188 189 190 187 185 182 178 172 168 165 169 164 165 137 131 122 88 49 337 54 94 97 93 285 31 35 57 72 66 67 96 115 138 223 259 262 100 80 247 258 241 237 174 249 283 235 273 289 294 316 311 313 330
190 190 190 189 188 185 180 173 166 160 162 158 159 149 131 113 77 83 84 153 108 77 85 46 354 16 95 94 27 36 78 262 224 249 256 170 296 105 172 242 260 257 253 284 295 354 330 341 301 311 303 306 309 304
201 193 192 189 188 183 173 166 158 153 151 151 147 126 115 100 79 52 12 61 72 89 68 107 284 21 49 114 101 213 148 50 163 217 354 177 300 56 262 250 268 268 292 299 281 218 230 285 297 299 300 310 317 331
205 197 193 190 182 174 165 158 150 143 142 130 115 102 77 57 113 116 103 74 52 103 142 136 157 216 15 84 138 22 89 56 244 155 259 164 265 233 227 230 253 232 193 246 301 288 317 318 299 306 310 319 322 325
224 200 191 184 171 163 155 148 140 138 127 124 80 63 98 75 116 116 14 38 29 354 42 156 109 139 87 38 4 73 360 169 197 253 197 174 258 253 242 222 224 231 210 177 335 336 346 322 317 314 308 306 298 312
249 207 191 176 164 152 148 142 135 132 127 79 109 94 77 94 76 55 94 130 115 358 162 105 152 141 333 119 169 128 195 264 59 262 142 292 277 250 257 244 234 231 217 234 233 237 230 256 281 296 309 311 313 325
243 218 188 166 154 148 146 139 141 124 110 117 104 103 93 104 94 121 157 108 208 216 151 149 168 140 144 113 100 344 135 43 230 195 71 277 253 253 242 243 263 228 232 258 233 258 268 281 282 283 288 301 302 314
230 216 170 153 149 147 140 141 118 118 111 91 73 90 131 213 145 184 179 198 206 165 170 164 124 120 112 59 58 69 76 231 347 49 231 229 254 270 237 240 275 252 236 262 278 268 272 282 292 280 294 291 313 320
225 174 149 146 144 138 137 133 131 124 79 76 132 132 195 181 225 189 174 143 118 115 133 123 111 125 132 77 125 97 243 60 5 308 241 252 236 247 230 223 169 252 230 252 260 268 278 287 297 298 305 315 331 335
169 145 141 138 136 133 134 131 114 65 84 107 120 165 185 112 51 84 94 107 100 131 126 113 83 101 80 94 100 87 31 255 215 231 234 235 234 217 230 217 226 240 244 249 255 259 276 287 291 298 309 320 334 328
130 125 133 131 133 129 123 112 62 75 66 84 94 109 103 92 121 144 148 118 163 131 104 62 110 88 142 138 118 208 143 226 242 217 226 181 229 227 232 224 230 231 231 241 250 255 267 280 284 289 294 315 331 327
118 118 135 127 122 117 91 67 67 57 93 99 100 91 145 78 138 148 147 149 153 134 143 138 112 170 95 82 235 190 209 221 221 240 215 210 223 235 226 230 234 229 228 241 246 252 256 276 286 287 285 294 316 325
117 135 132 118 109 78 50 41 82 82 80 72 141 138 89 73 120 120 108 144 146 165 148 171 120 132 187 185 226 231 228 251 236 225 234 237 235 236 221 223 228 228 225 237 238 250 249 265 271 255 272 290 294 292
132 130 130 116 82 85 82 53 22 93 79 105 83 50 69 93 49 96 128 135 108 99 109 64 107 194 217 212 213 236 232 214 221 237 240 243 238 233 237 236 236 232 223 222 222 236 242 237 246 260 264 273 268 280
126 116 104 80 73 86 88 60 55 97 130 124 87 91 76 83 98 117 125 127 118 102 96 180 212 212 191 221 194 199 200 188 167 275 273 264 241 230 232 222 223 232 231 229 235 243 226 241 235 250 259 242 234 258
90 88 63 66 60 57 81 88 69 74 110 85 97 92 85 62 105 139 138 117 77 204 235 213 219 241 217 257 225 203 223 172 211 204 238 268 255 222 232 222 220 221 214 210 219 252 252 221 218 217 250 267 254 277
104 106 82 47 78 69 79 13 88 80 74 105 106 106 118 148 150 154 169 99 232 232 197 181 216 179 157 236 229 212 235 238 249 252 268 274 263 243 223 205 180 215 204 222 220 230 241 218 196 207 226 247 238 211
102 56 55 53 80 52 51 289 93 59 116 155 133 105 129 149 230 330 205 234 258 230 194 185 200 191 194 244 244 256 238 232 244 244 257 255 249 239 219 207 197 202 230 233 213 220 222 231 241 206 207 231 197 218
44 57 67 66 72 109 131 86 92 107 114 166 155 132 178 145 29 55 249 244 245 237 186 194 154 131 13 7 239 236 231 210 220 268 235 214 241 266 232 219 205 215 226 221 205 209 197 210 231 194 169 198 196 183
78 21 81 72 78 128 120 136 138 125 122 158 112 114 194 97 117 214 241 262 238 225 198 164 168 184 189 247 264 249 233 178 193 234 252 191 204 317 277 237 234 229 193 203 208 197 198 181 184 188 191 203 207 194
82 4 79 139 136 140 158 136 172 149 120 120 129 113 88 106 134 236 225 216 216 192 181 182 179 169 236 209 214 235 247 186 152 204 264 193 190 184 215 235 252 260 203 208 178 197 197 192 191 197 202 228 228 190
114 174 105 14 90 99 87 63 66 127 155 163 165 156 143 187 231 244 253 218 185 209 182 163 164 176 189 204 220 241 229 175 189 207 216 223 210 205 211 221 234 239 183 193 195 187 193 196 194 201 207 200 219 197
115 167 134 140 93 20 129 123 156 188 171 156 138 176 177 192 227 231 210 235 175 131 112 100 133 159 172 205 214 229 298 114 55 349 331 308 251 230 223 231 217 258 216 192 196 184 184 186 187 186 196 201 187 183
96 74 108 111 157 180 187 169 187 161 113 164 157 183 225 228 236 234 246 209 126 99 118 150 300 29 13 345 273 226 188 157 139 196 244 258 315 293 209 207 209 226 203 190 240 197 191 178 179 179 183 177 159 151
104 23 100 86 139 200 192 27 114 323 17 59 345 348 332 289 251 208 145 121 145 186 193 156 143 122 217 180 267 293 231 207 203 187 204 226 232 258 212 191 195 193 178 172 208 288 213 190 198 112 125 137 148 154
50 72 83 65 118 322 343 347 353 20 26 22 350 146 242 288 286 233 190 179 141 98 90 299 282 210 185 220 203 216 276 247 219 227 224 212 243 246 231 216 194 167 160 163 177 183 197 125 135 148 159 173 191 174
33 87 125 114 253 294 31 68 83 96 310 71 280 288 340 20 306 294 241 96 80 119 228 183 175 254 214 232 239 244 251 251 239 229 232 240 232 219 210 191 173 174 168 177 175 174 158 163 161 170 180 191 195 184
61 59 57 87 59 3 280 115 19 348 27 21 329 208 210 173 247 283 311 179 166 183 204 217 225 223 219 219 224 250 279 253 277 269 260 244 235 225 201 183 176 184 188 192 192 186 181 167 179 181 186 187 190 190